Dobrodošli na spletni strani vremenske postaje Senovo. Vse informacije so informativnega značaja, saj vremenska postaja ni del državne mreže meteoroloških postaj. AKTUALNIH OBVESTIL NI.


Posebna pozornost v zvezi z vremenskimi dogajanji ni potrebna.    Posebna pozornost v zvezi z vremenskimi dogajanji ni potrebna.

Pogled proti Armezu več informacij Pogled proti Armezu


Lisca več informacij Lisca


Radar strel več informacij blitzortung!


Radar padavin več informacij rain snow radar


Obiščite še:

Template documentation
and downloads

And another site



Weather Underground, zgodovina - Tekstovno

Dnevni povzetek za Februar 8, 2018 Enote:  Metrično    Angleško   Obe
« Predhodni Dan
Naslednji Dan »
Dnevni Tedenski Mesečni Letni Po meri
  Višja: Nižja: Povprečje:
Temperatura: -17.8 °C -17.5 °C -16.8 °C
Točka rosišča: -17.8 °C -17.9 °C -17.2 °C
Vlažnost: Humidity % 89 % 94 %
Hitrost vetra: 0 km/h 0 km/h 0 km/h
Sunki vetra: 0 km/h - -
Veter:- - SSW
Zračni tlak: 0 hPa 34130.9 hPa -
Padavine: 83.82 mm    
Historical Graphs
 
 
Tabelarni podarki za Februar 8, 2018
Čas Temperatura Točka rosišča Zračni tlak Veter Hitrost vetra Sunki vetra Vlažnost Intenziteta padavin (urna)
-17.8 °C -17.8 °C 0 hPa Calm     Humidity % 0 mm
00:03 -17.4 °C -17.9 °C 34164.7 hPa Calm     94 % 25.4 mm
00:08 -17.4 °C -17.9 °C 34164.7 hPa Calm     94 % 25.4 mm
00:13 -17.4 °C -17.9 °C 34164.7 hPa Calm     94 % 25.4 mm
00:18 -17.4 °C -17.9 °C 34164.7 hPa Calm     94 % 25.4 mm
00:23 -17.4 °C -17.9 °C 34164.7 hPa Calm     94 % 25.4 mm
00:28 -17.4 °C -17.8 °C 34164.7 hPa Calm     95 % 25.4 mm
00:33 -17.4 °C -17.8 °C 34164.7 hPa Calm     95 % 25.4 mm
00:38 -17.4 °C -17.8 °C 34164.7 hPa Calm     95 % 25.4 mm
00:43 -17.4 °C -17.8 °C 34164.7 hPa Calm     95 % 25.4 mm
00:48 -17.4 °C -17.8 °C 34164.7 hPa Calm     95 % 25.4 mm
00:53 -17.4 °C -17.8 °C 34164.7 hPa Calm     95 % 25.4 mm
00:58 -17.4 °C -17.8 °C 34164.7 hPa Calm     95 % 25.4 mm
01:03 -17.4 °C -17.8 °C 34164.7 hPa Calm     95 % 25.4 mm
01:08 -17.4 °C -17.8 °C 34164.7 hPa Calm     95 % 20.32 mm
01:13 -17.4 °C -17.8 °C 34164.7 hPa Calm     95 % 20.32 mm
01:18 -17.4 °C -17.8 °C 34164.7 hPa Calm     95 % 20.32 mm
01:23 -17.4 °C -17.8 °C 34164.7 hPa Calm     95 % 20.32 mm
01:28 -17.4 °C -17.8 °C 34164.7 hPa Calm     95 % 20.32 mm
01:33 -17.4 °C -17.8 °C 34164.7 hPa Calm     95 % 20.32 mm
01:38 -17.4 °C -17.8 °C 34164.7 hPa Calm     95 % 20.32 mm
01:43 -17.4 °C -17.8 °C 34164.7 hPa Calm     95 % 20.32 mm
01:48 -17.4 °C -17.8 °C 34164.7 hPa Calm     95 % 12.7 mm
01:53 -17.4 °C -17.8 °C 34164.7 hPa Calm     95 % 20.32 mm
01:58 -17.4 °C -17.8 °C 34164.7 hPa Calm     95 % 12.7 mm
02:03 -17.4 °C -17.8 °C 34164.7 hPa Calm     95 % 12.7 mm
02:08 -17.4 °C -17.8 °C 34164.7 hPa Calm     95 % 12.7 mm
02:13 -17.4 °C -17.8 °C 34164.7 hPa Calm     95 % 7.62 mm
02:18 -17.4 °C -17.8 °C 34164.7 hPa Calm     95 % 7.62 mm
02:23 -17.4 °C -17.8 °C 34164.7 hPa Calm     95 % 7.62 mm
02:28 -17.5 °C -17.9 °C 34164.7 hPa Calm     95 % 7.62 mm
02:33 -17.5 °C -17.9 °C 34164.7 hPa Calm     95 % 7.62 mm
02:38 -17.5 °C -17.9 °C 34164.7 hPa Calm     95 % 7.62 mm
02:43 -17.5 °C -17.9 °C 34164.7 hPa Calm     95 % 7.62 mm
02:48 -17.5 °C -17.9 °C 34164.7 hPa Calm     95 % 7.62 mm
02:53 -17.5 °C -17.9 °C 34164.7 hPa Calm     95 % 7.62 mm
02:58 -17.4 °C -17.8 °C 34198.6 hPa Calm     95 % 7.62 mm
03:03 -17.4 °C -17.8 °C 34198.6 hPa Calm     95 % 7.62 mm
03:08 -17.4 °C -17.8 °C 34198.6 hPa Calm     95 % 7.62 mm
03:13 -17.4 °C -17.8 °C 34164.7 hPa Calm     95 % 7.62 mm
03:18 -17.4 °C -17.8 °C 34164.7 hPa Calm     95 % 7.62 mm
03:23 -17.4 °C -17.8 °C 34164.7 hPa Calm     95 % 7.62 mm
03:28 -17.4 °C -17.8 °C 34164.7 hPa Calm     95 % 7.62 mm
03:33 -17.4 °C -17.8 °C 34164.7 hPa Calm     95 % 7.62 mm
03:38 -17.4 °C -17.7 °C 34164.7 hPa Calm     96 % 7.62 mm
03:43 -17.4 °C -17.7 °C 34198.6 hPa Calm     96 % 7.62 mm
03:48 -17.4 °C -17.7 °C 34198.6 hPa Calm     96 % 7.62 mm
03:53 -17.4 °C -17.7 °C 34198.6 hPa Calm     96 % 7.62 mm
03:58 -17.4 °C -17.7 °C 34164.7 hPa Calm     96 % 7.62 mm
04:04 -17.4 °C -17.7 °C 34164.7 hPa Calm     96 % 7.62 mm
04:09 -17.4 °C -17.7 °C 34164.7 hPa Calm     96 % 7.62 mm
04:14 -17.4 °C -17.7 °C 34130.9 hPa Calm     96 % 7.62 mm
04:19 -17.4 °C -17.7 °C 34130.9 hPa Calm     96 % 7.62 mm
04:24 -17.4 °C -17.7 °C 34130.9 hPa Calm     96 % 0 mm
04:29 -17.4 °C -17.7 °C 34164.7 hPa Calm     96 % 0 mm
04:34 -17.4 °C -17.7 °C 34164.7 hPa Calm     96 % 7.62 mm
04:39 -17.4 °C -17.7 °C 34164.7 hPa Calm     96 % 7.62 mm
04:44 -17.4 °C -17.7 °C 34164.7 hPa Calm     96 % 7.62 mm
04:49 -17.4 °C -17.7 °C 34164.7 hPa Calm     96 % 7.62 mm
04:54 -17.4 °C -17.7 °C 34164.7 hPa Calm     96 % 7.62 mm
04:59 -17.4 °C -17.7 °C 34164.7 hPa Calm     96 % 12.7 mm
05:04 -17.4 °C -17.7 °C 34164.7 hPa Calm     96 % 12.7 mm
05:09 -17.4 °C -17.7 °C 34164.7 hPa Calm     96 % 12.7 mm
05:14 -17.4 °C -17.7 °C 34164.7 hPa Calm     96 % 20.32 mm
05:19 -17.4 °C -17.7 °C 34164.7 hPa Calm     96 % 20.32 mm
05:24 -17.4 °C -17.7 °C 34164.7 hPa Calm     96 % 20.32 mm
05:29 -17.4 °C -17.7 °C 34164.7 hPa Calm     96 % 20.32 mm
05:34 -17.4 °C -17.7 °C 34164.7 hPa Calm     96 % 12.7 mm
05:39 -17.4 °C -17.7 °C 34198.6 hPa Calm     96 % 12.7 mm
05:44 -17.4 °C -17.7 °C 34198.6 hPa Calm     96 % 12.7 mm
05:49 -17.4 °C -17.7 °C 34198.6 hPa Calm     96 % 12.7 mm
05:54 -17.4 °C -17.7 °C 34198.6 hPa Calm     96 % 12.7 mm
05:59 -17.4 °C -17.7 °C 34198.6 hPa Calm     96 % 12.7 mm
06:04 -17.4 °C -17.7 °C 34198.6 hPa Calm     96 % 12.7 mm
06:09 -17.4 °C -17.7 °C 34198.6 hPa Calm     96 % 12.7 mm
06:14 -17.4 °C -17.7 °C 34198.6 hPa Calm     96 % 12.7 mm
06:19 -17.4 °C -17.7 °C 34198.6 hPa Calm     96 % 12.7 mm
06:24 -17.4 °C -17.7 °C 34235.8 hPa Calm     96 % 20.32 mm
06:29 -17.4 °C -17.7 °C 34235.8 hPa Calm     96 % 20.32 mm
06:34 -17.4 °C -17.7 °C 34235.8 hPa Calm     96 % 20.32 mm
06:39 -17.4 °C -17.7 °C 34235.8 hPa Calm     96 % 12.7 mm
06:44 -17.4 °C -17.7 °C 34235.8 hPa Calm     96 % 12.7 mm
06:49 -17.4 °C -17.7 °C 34235.8 hPa Calm     96 % 20.32 mm
06:54 -17.4 °C -17.7 °C 34235.8 hPa Calm     96 % 12.7 mm
06:59 -17.4 °C -17.7 °C 34235.8 hPa Calm     96 % 12.7 mm
07:04 -17.4 °C -17.7 °C 34235.8 hPa Calm   2.3 km/h 96 % 7.62 mm
07:09 -17.4 °C -17.7 °C 34235.8 hPa Calm   2.3 km/h 96 % 7.62 mm
07:14 -17.4 °C -17.7 °C 34235.8 hPa Calm     96 % 12.7 mm
07:19 -17.4 °C -17.7 °C 34235.8 hPa Calm     96 % 12.7 mm
07:24 -17.4 °C -17.7 °C 34198.6 hPa Calm     96 % 7.62 mm
07:29 -17.4 °C -17.7 °C 34198.6 hPa Calm     96 % 7.62 mm
07:34 -17.4 °C -17.7 °C 34198.6 hPa Calm     96 % 7.62 mm
07:39 -17.4 °C -17.7 °C 34235.8 hPa Calm     96 % 7.62 mm
07:44 -17.4 °C -17.7 °C 34235.8 hPa Calm     96 % 7.62 mm
07:49 -17.4 °C -17.7 °C 34235.8 hPa Calm     96 % 7.62 mm
07:54 -17.4 °C -17.7 °C 34235.8 hPa Calm     96 % 7.62 mm
07:59 -17.4 °C -17.7 °C 34235.8 hPa Calm     96 % 7.62 mm
08:04 -17.4 °C -17.7 °C 34235.8 hPa Calm     96 % 7.62 mm
08:09 -17.3 °C -17.7 °C 34269.7 hPa Calm     96 % 7.62 mm
08:14 -17.3 °C -17.6 °C 34269.7 hPa Calm     97 % 0 mm
08:19 -17.3 °C -17.5 °C 34269.7 hPa Calm     97 % 0 mm
08:24 -17.3 °C -17.5 °C 34269.7 hPa Calm     97 % 0 mm
08:29 -17.2 °C -17.6 °C 34269.7 hPa Calm     96 % 0 mm
08:34 -17.2 °C -17.6 °C 34269.7 hPa Calm     96 % 0 mm
08:39 -17.2 °C -17.6 °C 34269.7 hPa Calm     96 % 0 mm
08:44 -17.2 °C -17.4 °C 34269.7 hPa Calm     96 % 0 mm
08:49 -17.2 °C -17.4 °C 34269.7 hPa Calm     96 % 0 mm
08:54 -17.2 °C -17.4 °C 34269.7 hPa Calm     96 % 0 mm
08:59 -17.1 °C -17.4 °C 34269.7 hPa Calm     96 % 0 mm
09:04 -17.1 °C -17.4 °C 34269.7 hPa Calm     96 % 0 mm
09:09 -17.1 °C -17.3 °C 34269.7 hPa Calm     97 % 0 mm
09:14 -17.1 °C -17.3 °C 34269.7 hPa Calm     97 % 0 mm
09:19 -17.1 °C -17.3 °C 34269.7 hPa Calm     97 % 0 mm
09:24 -17.1 °C -17.3 °C 34269.7 hPa Calm     97 % 0 mm
09:29 -17 °C -17.2 °C 34269.7 hPa Calm     97 % 0 mm
09:34 -17 °C -17.2 °C 34269.7 hPa Calm     97 % 0 mm
09:39 -16.9 °C -17.2 °C 34269.7 hPa Calm     97 % 0 mm
09:44 -16.8 °C -17.1 °C 34269.7 hPa Calm     97 % 0 mm
09:49 -16.8 °C -17 °C 34269.7 hPa Calm     97 % 0 mm
09:54 -16.7 °C -16.9 °C 34303.6 hPa Calm     97 % 0 mm
09:59 -16.7 °C -16.9 °C 34303.6 hPa Calm     97 % 0 mm
10:04 -16.7 °C -16.9 °C 34303.6 hPa Calm     97 % 0 mm
10:09 -16.6 °C -16.8 °C 34303.6 hPa Calm     97 % 0 mm
10:14 -16.4 °C -16.7 °C 34303.6 hPa Calm     97 % 0 mm
10:19 -16.3 °C -16.6 °C 34303.6 hPa Calm     97 % 0 mm
10:24 -16.3 °C -16.5 °C 34303.6 hPa Calm     97 % 0 mm
10:25 -16.3 °C -16.5 °C 34303.6 hPa Calm     97 % 0 mm
10:30 -16.2 °C -16.4 °C 34303.6 hPa Calm     97 % 0 mm
10:35 -16.2 °C -16.4 °C 34303.6 hPa Calm     97 % 0 mm
10:40 -16.2 °C -16.4 °C 34303.6 hPa Calm   4.2 km/h 97 % 0 mm
10:45 -16.2 °C -16.4 °C 34303.6 hPa Calm   4.2 km/h 97 % 0 mm
10:50 -16.2 °C -16.4 °C 34303.6 hPa South 0.3 km/h 3.4 km/h 97 % 0 mm
10:55 -16.1 °C -16.4 °C 34269.7 hPa South 0.3 km/h 3.4 km/h 96 % 0 mm
11:00 -16.1 °C -16.4 °C 34269.7 hPa Calm     96 % 0 mm
11:05 -16 °C -16.3 °C 34269.7 hPa Calm     96 % 0 mm
11:10 -15.9 °C -16.2 °C 34303.6 hPa Calm     96 % 0 mm
11:15 -15.8 °C -16.1 °C 34303.6 hPa Calm     97 % 0 mm
11:20 -15.7 °C -15.9 °C 34303.6 hPa Calm     97 % 0 mm
11:25 -15.6 °C -15.9 °C 34269.7 hPa Calm     97 % 0 mm
11:30 -15.6 °C -15.9 °C 34269.7 hPa Calm     97 % 0 mm
11:35 -15.5 °C -15.8 °C 34269.7 hPa Calm     96 % 0 mm
11:40 -15.5 °C -15.8 °C 34269.7 hPa Calm     96 % 0 mm
11:45 -15.6 °C -15.9 °C 34269.7 hPa Calm     96 % 0 mm
11:50 -15.6 °C -15.9 °C 34269.7 hPa Calm     96 % 0 mm
11:55 -15.5 °C -15.8 °C 34303.6 hPa Calm     96 % 0 mm
12:00 -15.3 °C -15.7 °C 34303.6 hPa Calm     96 % 0 mm
12:05 -15.3 °C -15.6 °C 34303.6 hPa Calm     96 % 0 mm
12:10 -15.3 °C -15.6 °C 34269.7 hPa Calm     96 % 0 mm
12:15 -15.3 °C -15.7 °C 34269.7 hPa Calm     96 % 0 mm
12:20 -15.3 °C -15.7 °C 34269.7 hPa Calm     95 % 0 mm
12:25 -15.3 °C -15.7 °C 34269.7 hPa Calm     95 % 0 mm
12:30 -15.3 °C -15.7 °C 34269.7 hPa Calm     95 % 0 mm
12:35 -15.3 °C -15.7 °C 34269.7 hPa Calm     95 % 0 mm
12:40 -15.3 °C -15.7 °C 34303.6 hPa Calm     95 % 0 mm
12:45 -15.3 °C -15.7 °C 34303.6 hPa Calm     95 % 0 mm
12:50 -15.4 °C -15.9 °C 34303.6 hPa Calm     94 % 0 mm
12:55 -15.3 °C -15.8 °C 34303.6 hPa Calm     94 % 0 mm
13:00 -15.3 °C -15.8 °C 34303.6 hPa Calm     94 % 0 mm
13:05 -15.2 °C -15.7 °C 34303.6 hPa Calm     94 % 0 mm
13:10 -15.2 °C -15.7 °C 34303.6 hPa Calm     94 % 0 mm
13:15 -15.2 °C -15.7 °C 34303.6 hPa Calm     94 % 0 mm
13:20 -15.2 °C -15.7 °C 34303.6 hPa Calm     94 % 0 mm
13:25 -15.1 °C -15.7 °C 34269.7 hPa Calm     93 % 0 mm
13:30 -15.2 °C -15.7 °C 34269.7 hPa Calm     93 % 0 mm
13:35 -15.2 °C -15.7 °C 34269.7 hPa Calm     93 % 0 mm
13:40 -15.1 °C -15.7 °C 34269.7 hPa Calm     93 % 0 mm
13:45 -15.1 °C -15.7 °C 34269.7 hPa Calm     93 % 0 mm
13:50 -15.2 °C -15.7 °C 34269.7 hPa Calm     93 % 0 mm
13:55 -15.2 °C -15.8 °C 34269.7 hPa Calm     92 % 0 mm
14:00 -15.2 °C -15.9 °C 34269.7 hPa Calm     92 % 0 mm
14:05 -15.2 °C -15.9 °C 34269.7 hPa Calm     92 % 0 mm
14:10 -15.2 °C -15.9 °C 34303.6 hPa Calm     92 % 0 mm
14:15 -15.2 °C -15.9 °C 34303.6 hPa Calm     91 % 0 mm
14:20 -15.2 °C -15.9 °C 34303.6 hPa Calm     91 % 0 mm
14:25 -15.3 °C -16 °C 34269.7 hPa Calm     91 % 0 mm
14:30 -15.3 °C -16 °C 34269.7 hPa Calm     91 % 0 mm
14:35 -15.3 °C -16 °C 34269.7 hPa Calm     91 % 0 mm
14:40 -15.3 °C -16.1 °C 34269.7 hPa Calm     91 % 0 mm
14:45 -15.4 °C -16.2 °C 34269.7 hPa Calm     90 % 0 mm
14:50 -15.4 °C -16.3 °C 34269.7 hPa Calm     90 % 0 mm
14:55 -15.5 °C -16.3 °C 34303.6 hPa Calm     90 % 0 mm
15:00 -15.5 °C -16.3 °C 34303.6 hPa Calm     90 % 0 mm
15:05 -15.6 °C -16.4 °C 34303.6 hPa Calm     90 % 0 mm
15:10 -15.6 °C -16.4 °C 34303.6 hPa Calm     90 % 0 mm
15:15 -15.6 °C -16.4 °C 34303.6 hPa Calm     90 % 0 mm
15:20 -15.6 °C -16.4 °C 34303.6 hPa Calm     90 % 0 mm
15:25 -15.7 °C -16.5 °C 34303.6 hPa Calm     90 % 0 mm
15:30 -15.7 °C -16.6 °C 34303.6 hPa Calm     90 % 0 mm
15:35 -15.8 °C -16.6 °C 34303.6 hPa Calm     90 % 0 mm
15:40 -15.8 °C -16.6 °C 34303.6 hPa Calm     90 % 0 mm
15:45 -15.8 °C -16.6 °C 34303.6 hPa Calm     90 % 0 mm
15:50 -15.8 °C -16.7 °C 34303.6 hPa Calm     90 % 0 mm
15:55 -15.9 °C -16.7 °C 34303.6 hPa Calm     90 % 0 mm
16:00 -15.9 °C -16.8 °C 34303.6 hPa Calm     90 % 0 mm
16:05 -15.9 °C -16.8 °C 34303.6 hPa Calm     90 % 0 mm
16:10 -16 °C -16.8 °C 34337.4 hPa Calm     90 % 0 mm
16:15 -16.1 °C -17 °C 34337.4 hPa Calm     89 % 0 mm
16:20 -16.1 °C -17 °C 34337.4 hPa Calm     89 % 0 mm
16:25 -16.1 °C -17 °C 34337.4 hPa Calm     89 % 0 mm
16:30 -16.2 °C -17 °C 34337.4 hPa Calm     90 % 0 mm
16:35 -16.2 °C -17.1 °C 34337.4 hPa Calm     90 % 0 mm
16:40 -16.3 °C -17.1 °C 34337.4 hPa Calm     90 % 0 mm
16:45 -16.3 °C -17.2 °C 34337.4 hPa Calm     90 % 0 mm
16:50 -16.3 °C -17.2 °C 34337.4 hPa Calm     90 % 0 mm
16:55 -16.4 °C -17.2 °C 34371.3 hPa Calm     90 % 0 mm
17:00 -16.4 °C -17.3 °C 34371.3 hPa Calm     90 % 0 mm
17:05 -16.5 °C -17.3 °C 34371.3 hPa Calm     90 % 0 mm
17:10 -16.5 °C -17.3 °C 34371.3 hPa Calm     90 % 0 mm
17:15 -16.6 °C -17.4 °C 34371.3 hPa Calm     90 % 0 mm
17:20 -16.6 °C -17.4 °C 34371.3 hPa Calm     90 % 0 mm
17:25 -16.6 °C -17.4 °C 34371.3 hPa Calm     90 % 0 mm
17:30 -16.7 °C -17.4 °C 34371.3 hPa Calm     90 % 0 mm
17:35 -16.7 °C -17.4 °C 34371.3 hPa Calm     90 % 0 mm
17:40 -16.7 °C -17.4 °C 34371.3 hPa Calm     91 % 0 mm
17:45 -16.7 °C -17.4 °C 34371.3 hPa Calm     91 % 0 mm
17:50 -16.7 °C -17.4 °C 34371.3 hPa Calm     91 % 0 mm
17:55 -16.8 °C -17.5 °C 34371.3 hPa Calm     91 % 0 mm
18:00 -16.8 °C -17.5 °C 34371.3 hPa Calm     91 % 0 mm
18:05 -16.8 °C -17.6 °C 34371.3 hPa Calm     91 % 0 mm
18:10 -16.8 °C -17.6 °C 34337.4 hPa Calm     91 % 0 mm
18:15 -16.8 °C -17.6 °C 34337.4 hPa Calm     91 % 0 mm
18:20 -16.9 °C -17.6 °C 34337.4 hPa Calm     91 % 0 mm
18:25 -16.9 °C -17.6 °C 34337.4 hPa Calm     91 % 0 mm
18:30 -16.9 °C -17.6 °C 34337.4 hPa Calm     91 % 0 mm
18:35 -16.9 °C -17.6 °C 34337.4 hPa Calm     92 % 0 mm
18:40 -16.9 °C -17.6 °C 34371.3 hPa Calm     92 % 0 mm
18:45 -16.9 °C -17.6 °C 34371.3 hPa Calm     92 % 0 mm
18:50 -16.9 °C -17.6 °C 34371.3 hPa Calm     92 % 0 mm
18:55 -17 °C -17.7 °C 34371.3 hPa Calm     92 % 0 mm
19:00 -17 °C -17.7 °C 34371.3 hPa Calm     92 % 0 mm
19:05 -17 °C -17.7 °C 34371.3 hPa Calm     92 % 0 mm
19:10 -17 °C -17.7 °C 34371.3 hPa Calm     92 % 0 mm
19:15 -17 °C -17.7 °C 34371.3 hPa Calm     92 % 0 mm
19:20 -17 °C -17.7 °C 34371.3 hPa Calm     92 % 0 mm
19:25 -17 °C -17.7 °C 34371.3 hPa Calm     92 % 0 mm
19:30 -17.1 °C -17.7 °C 34371.3 hPa Calm     92 % 0 mm
19:35 -17.1 °C -17.6 °C 34371.3 hPa Calm     93 % 0 mm
19:40 -17.1 °C -17.6 °C 34371.3 hPa Calm     93 % 0 mm
19:45 -17.1 °C -17.6 °C 34371.3 hPa Calm     93 % 0 mm
19:50 -17.1 °C -17.6 °C 34371.3 hPa Calm     93 % 0 mm
19:55 -17.1 °C -17.6 °C 34405.1 hPa Calm     93 % 0 mm
20:01 -17.1 °C -17.6 °C 34405.1 hPa Calm     93 % 0 mm
20:06 -17.1 °C -17.6 °C 34405.1 hPa Calm     93 % 0 mm
20:11 -17.1 °C -17.6 °C 34405.1 hPa Calm     93 % 0 mm
20:16 -17.1 °C -17.7 °C 34405.1 hPa Calm     93 % 0 mm
20:21 -17.1 °C -17.7 °C 34405.1 hPa Calm     93 % 0 mm
20:26 -17.1 °C -17.7 °C 34405.1 hPa Calm     93 % 0 mm
20:31 -17.1 °C -17.7 °C 34405.1 hPa Calm     93 % 0 mm
20:36 -17.1 °C -17.7 °C 34405.1 hPa Calm     93 % 0 mm
20:41 -17.1 °C -17.6 °C 34405.1 hPa Calm     94 % 0 mm
20:46 -17.1 °C -17.6 °C 34405.1 hPa Calm     94 % 0 mm
20:51 -17.1 °C -17.6 °C 34405.1 hPa Calm     94 % 0 mm
20:56 -17.1 °C -17.6 °C 34405.1 hPa Calm     94 % 0 mm
21:01 -17.1 °C -17.6 °C 34405.1 hPa Calm     94 % 0 mm
21:06 -17.2 °C -17.7 °C 34405.1 hPa Calm     94 % 0 mm
21:11 -17.2 °C -17.7 °C 34405.1 hPa Calm     94 % 0 mm
21:16 -17.2 °C -17.7 °C 34405.1 hPa Calm     94 % 0 mm
21:21 -17.2 °C -17.7 °C 34405.1 hPa Calm     94 % 0 mm
21:26 -17.2 °C -17.7 °C 34405.1 hPa Calm     94 % 0 mm
21:31 -17.2 °C -17.7 °C 34405.1 hPa Calm     94 % 0 mm
21:36 -17.2 °C -17.7 °C 34405.1 hPa Calm     94 % 0 mm
21:41 -17.2 °C -17.7 °C 34405.1 hPa Calm     94 % 0 mm
21:46 -17.2 °C -17.7 °C 34405.1 hPa Calm     94 % 0 mm
21:51 -17.2 °C -17.7 °C 34405.1 hPa Calm     94 % 0 mm
21:56 -17.2 °C -17.7 °C 34405.1 hPa Calm     94 % 0 mm
22:01 -17.2 °C -17.7 °C 34405.1 hPa Calm     94 % 0 mm
22:06 -17.2 °C -17.7 °C 34405.1 hPa Calm     94 % 0 mm
22:11 -17.2 °C -17.6 °C 34405.1 hPa Calm     95 % 0 mm
22:16 -17.2 °C -17.6 °C 34405.1 hPa Calm     95 % 0 mm
22:21 -17.2 °C -17.6 °C 34405.1 hPa Calm     95 % 0 mm
22:26 -17.2 °C -17.6 °C 34405.1 hPa Calm     95 % 0 mm
22:31 -17.2 °C -17.6 °C 34405.1 hPa Calm     95 % 0 mm
22:36 -17.2 °C -17.6 °C 34405.1 hPa Calm     95 % 0 mm
22:41 -17.2 °C -17.6 °C 34405.1 hPa Calm     95 % 0 mm
22:46 -17.2 °C -17.6 °C 34405.1 hPa Calm     95 % 0 mm
22:51 -17.2 °C -17.6 °C 34405.1 hPa Calm     95 % 0 mm
22:56 -17.2 °C -17.6 °C 34405.1 hPa Calm     95 % 0 mm
23:01 -17.2 °C -17.6 °C 34405.1 hPa Calm     95 % 0 mm
23:06 -17.2 °C -17.6 °C 34405.1 hPa Calm     95 % 0 mm
23:11 -17.2 °C -17.6 °C 34405.1 hPa Calm     95 % 0 mm
23:16 -17.2 °C -17.6 °C 34405.1 hPa Calm   5.1 km/h 95 % 0 mm
23:21 -17.2 °C -17.6 °C 34405.1 hPa SW 1 km/h 5.1 km/h 95 % 0 mm
23:26 -17.2 °C -17.6 °C 34405.1 hPa SW 1 km/h 4.2 km/h 95 % 0 mm
23:31 -17.2 °C -17.6 °C 34405.1 hPa Calm     95 % 0 mm
23:36 -17.2 °C -17.6 °C 34405.1 hPa Calm     95 % 0 mm
23:41 -17.2 °C -17.6 °C 34405.1 hPa Calm     95 % 0 mm
23:46 -17.2 °C -17.6 °C 34405.1 hPa Calm     95 % 0 mm
23:51 -17.2 °C -17.6 °C 34405.1 hPa Calm     95 % 0 mm
23:56 -17.2 °C -17.6 °C 34405.1 hPa Calm     95 % 0 mm
Vremenska postaja Senovo
Podatki zbrani iz Weather Underground - 3 mb

Script developed by  Jim McMurry - jmcmurry@mwt.net Adapted for the template by  Wim van der Kuil - Leuven-Template.eu

Vremenski podatki so objavljeni na:

European Weather Network

WeatherCloud

Weather Underground

AWEKAS

HAMweather, WeatherForYou, PWS Weather

MapView

Geostik

Slovenia weather network

Oprema, ki se uporablja:

Vremenski program
Cumulus

Vremenski server
Asus

Cumulus

Asus